map of ASK home
Great Circle Mapper logo
ASK - Airport
Location
City:  Yamoussoukro, Côte d'Ivoire (Ivory Coast)
ICAO / IATA:DIYO / ASK

Details
Type:Airport (Aerodrome, Airfield)
Use:Public/Civil, International (customs port of entry)
Latitude:6°54'11"N (6.903167)
Longitude:5°21'56"W (-5.365580)
Datum:WGS 1984
Elevation:699 ft (213 m)
Variation:4.96°W (WMM2015 magnetic declination)
0.11° annual change
Runways:1
Longest:9843 × 148 ft (3000 × 45 m), paved

Time
Time Zone:UTC+0
Local Time:

Weather
METAR:DIYO 272000Z 22004KT CAVOK 27/24 Q1010 NOSIG
TAF:DIYO 272300Z 2800/2824 VRB02KT 8000 FEW012 PROB40 2805/2808 4000 ? BR
TEMPO 2808/2811 BKN012
BECMG 2810/2812 20010KT

Related Locations
Nearby:
Farthest:FUN: 12116 mi / 19498 km
Funafuti Atoll [Intl], TV

Find:

   beyond  
but within

Other Information
Maps:
NOTAMs:
Links:
Sources:

  
flag of Côte d'Ivoire (Ivory Coast)   

Sectional Chart

Flight Planning
at skyvector.com

Satellite Image

Google Maps Satellite View

 

Copyright © 2004-2015 Karl L. Swartz. All rights reserved.
The Great Circle Mapper name and logo are trademarks of the Great Circle Mapper.
All other trademarks mentioned herein belong to their respective owners.
Please see credits for attibutions and further copyright information.

  Follow gcmap on Facebook Follow gcmap on Twitter Follow gcmap on Google+

hCard Microformat

Geo Microformat